{"data":{"norad_id":60994,"epoch":"2026-05-24T17:31:50.933568Z","epoch_age_seconds":112525,"freshness":"FRESH","line1":"1 60994U 24158E   26144.73045062 -.00000417  00000+0  14185-5 0  9998","line2":"2 60994  53.1595 266.7109 0001143  79.3382 280.7764 15.69705478 99532","mean_motion":15.69705478,"eccentricity":0.0001143,"inclination_deg":53.1595,"raan_deg":266.7109,"arg_perigee_deg":79.3382,"mean_anomaly_deg":280.7764,"bstar":1.4185e-6,"rev_number":9953,"period_min":91.736954491281,"perigee_km":358.96955137817,"apogee_km":360.50982998966,"semimajor_km":6737.8766906839,"source":"CELESTRAK","updated_at":"2026-05-25T13:38:19.322805Z"}}